User: anonymous   Login
Location: Grand Lay
(47.3253°N, 0.9468°E)
Time: 02:04:17
(UTC+00:00)
Language:

ATLAS 2AS CENTAUR R/B - Orbit

View from above orbital plane
View from above orbital plane
View from above satellite
View from above satellite

Ground track
Ground track

The orbit is defined by the following mean orbital elements,

1 28096U          26070.83378765 +.00000000 +00000-0 +11101-3 0 00007
2 28096  63.6789 280.9127 0073294 117.4014 243.4493 13.41063357    00
Epoch (UTC): 11 March 2026 20:00:39
Eccentricity: 0.0073294
inclination: 63.6789°
perigee height: 1050 km
apogee height: 1160 km
right ascension of ascending node: 280.9127°
argument of perigee: 117.4014°
revolutions per day: 13.41063357
mean anomaly at epoch: 243.4493°

The dashed part of the orbit path shows where the satellite is in the earth's shadow,  

DLR